Location: Bretea Mure?an?
(45.9333°N, 22.7167°E)
Time: 11:04:10
(UTC+00:00)

Daily predictions for brighter satellites

Satellite Brightness Start Highest point End
(mag) Time Altitude Azimuth Time Altitude Azimuth Time Altitude Azimuth
Meteor 1-20 Rocket 4.4 16:37:35 10° SSE 16:42:48 49° E 16:48:04 10° NNE
H-2A R/B 3.0 16:40:26 10° N 16:44:25 50° WNW 16:48:23 10° SW
Cosmos 2084 Rocket 4.4 16:40:46 10° NNW 16:44:39 32° NE 16:48:40 10° ESE
SL-4 R/B 2.9 16:42:24 10° WNW 16:45:41 31° N 16:48:50 10° ENE
CZ-2C R/B 3.6 16:41:14 10° NE 16:45:45 26° E 16:50:11 10° SSE
USA 306 4.0 16:41:57 10° W 16:45:58 39° NNW 16:50:00 10° NE
Cosmos 1805 Rocket 3.9 16:42:16 10° SSW 16:46:38 73° W 16:51:04 10° N
Okean O Rocket 3.6 16:47:34 10° SSW 16:51:32 35° W 16:55:33 10° NNW
USA 308 4.0 16:48:40 10° W 16:52:40 38° NNW 16:56:41 10° NE
Cosmos 1486 Rocket 4.2 16:49:51 10° NNW 16:55:02 53° ENE 17:00:13 10° SE
Cosmos 968 Rocket 3.6 16:50:58 10° NNW 16:56:12 61° ENE 17:01:25 10° SE
Cosmos 1689 Rocket 2.8 16:54:09 10° NNE 16:56:45 30° E 16:59:21 10° SSE
IRS-1C Rocket 4.1 16:51:47 10° SSE 16:57:03 84° ENE 17:02:22 10° NNW
USA 234 4.0 16:51:30 10° ENE 16:57:17 33° SE 17:03:02 10° S
PSLV R/B 4.1 16:53:37 10° NNE 16:57:36 47° E 17:01:30 10° S
H-2A R/B 2.2 16:53:26 10° SSE 16:58:51 72° ENE 17:04:18 10° N
APEX 2.4 16:58:46 10° NNW 17:01:37 78° WSW 17:04:18 10° SSE
SAR-Lupe-4 4.1 16:58:38 10° NNE 17:01:59 36° E 17:05:19 10° SSE
Cosmos 1844 Rocket 3.4 16:59:45 10° NNW 17:04:48 33° NE 17:09:48 10° ESE
CSL-04 Rocket 4.0 16:59:47 10° SE 17:05:05 48° ENE 17:10:21 10° N
CSL-04 Debris 4.4 16:59:52 10° SE 17:05:06 51° ENE 17:10:22 10° N
SeaSat 1 2.9 17:01:48 10° NE 17:06:29 41° ESE 17:11:07 10° S
Cosmos 1933 Rocket 4.4 17:04:26 10° SSE 17:08:08 28° E 17:11:51 10° NNE
Cosmos 1666 Rocket 3.5 17:05:10 10° S 17:09:30 89° W 17:13:51 10° N
Nadezhda 3 Rocket 4.1 17:03:49 10° N 17:10:08 60° ENE 17:16:24 10° SSE
Cosmos 1302 Rocket 4.2 17:06:36 10° SSW 17:11:47 74° WNW 17:17:01 10° NNE
Cosmos 1862 Rocket 3.6 17:07:18 10° N 17:11:48 65° E 17:16:14 10° SSE
Cosmos 1271 Rocket 3.2 17:08:40 10° NNW 17:12:22 61° W 17:16:04 10° S
Cosmos 1844 4.5 17:07:53 10° NNW 17:13:06 33° NE 17:17:41 13° ESE
Meteor 1-19 Rocket 4.3 17:07:51 10° N 17:13:49 66° ENE 17:19:33 10° SSE
OBJECT-B 2.9 17:14:18 12° NE 17:14:18 12° NE 17:15:08 10° NE
Aureole 2 Rocket 2.5 17:12:34 10° N 17:14:52 28° ENE 17:15:57 20° ESE
Cosmos 2154 Rocket 4.0 17:09:11 10° S 17:15:16 63° E 17:21:24 10° NNE
ERS-2 2.1 17:11:44 10° NNE 17:15:21 59° ESE 17:18:58 10° S
Cosmos 1666 4.1 17:13:41 10° SE 17:16:07 17° E 17:18:32 10° NE
Cosmos 2074 Rocket 4.1 17:10:07 10° S 17:16:24 85° W 17:22:41 10° N
Cosmos 2360 Rocket 2.7 17:12:20 10° S 17:17:28 37° ESE 17:22:38 10° NE
Cosmos 2278 Rocket 4.1 17:16:08 10° NNE 17:18:23 12° NE 17:20:36 10° ENE
Sich 1 4.4 17:15:42 10° SSW 17:19:53 43° WNW 17:24:08 10° N
Cosmos 1610 Rocket 4.4 17:13:57 10° S 17:20:04 68° E 17:26:18 10° NNE
Cosmos 1354 Rocket 4.3 17:15:48 10° N 17:20:50 44° ENE 17:25:50 10° SE
SAR-Lupe-1 4.0 17:17:39 10° NNE 17:21:14 66° ESE 17:24:49 10° S
Cosmos 1602 3.7 17:18:32 10° S 17:22:25 89° W 17:26:22 10° N
Meteor 2-4 Rocket 4.1 17:17:08 10° N 17:22:45 47° ENE 17:28:26 10° SSE
Cosmos 2333 Rocket 3.4 17:20:23 10° SE 17:24:11 19° E 17:26:03 16° ENE
YAOGAN 1 2.9 17:21:29 10° S 17:25:47 68° WSW 17:30:06 10° NNW
GP-B 3.4 17:24:50 10° SSE 17:29:03 45° E 17:33:17 10° N
COSMO-SKYMED 1 4.5 17:27:31 10° N 17:31:24 32° WNW 17:35:16 10° SW
Cosmos 1503 Rocket 4.0 17:26:37 10° NNW 17:31:48 62° ENE 17:36:54 10° SSE
Cosmos 1461 4.2 17:27:15 10° WSW 17:31:50 48° NW 17:36:27 10° NNE
FALCON 9 DEB 3.7 17:30:13 10° NW 17:33:31 44° NNE 17:34:54 28° ENE
Cosmos 1980 Rocket 4.2 17:28:52 10° WSW 17:33:41 28° NW 17:38:33 10° N
Cosmos 1500 3.1 17:30:49 10° S 17:34:28 56° E 17:38:08 10° NNE
Cosmos 2184 Rocket 4.5 17:29:47 10° SSW 17:35:53 64° WNW 17:42:04 10° N
Helios 1A Rocket 3.0 17:35:47 10° S 17:39:50 78° WSW 17:43:54 10° NNW
Ariane Rocket 3.7 17:39:15 22° ESE 17:41:45 34° ENE 17:46:20 10° N
HJ-1C 4.0 17:38:56 10° S 17:42:12 56° W 17:45:29 10° NNW
Abrixas rocket 2.0 17:40:14 10° W 17:42:41 49° N 17:43:03 43° NNE
Cosmos 2322 Rocket 2.3 17:40:56 10° SSW 17:46:32 78° WNW 17:52:12 10° NNE
Cosmos 1633 Rocket 4.3 17:42:21 10° SSW 17:46:35 45° WNW 17:50:51 10° N
Cosmos 44 Rocket 3.8 17:42:47 10° NW 17:47:59 66° WSW 17:53:06 10° SSE
SJ 16-02 3.4 17:45:55 10° NNE 17:47:29 13° NE 17:47:29 13° NE
SL-8 Rocket 4.2 17:43:31 10° SSE 17:49:27 47° E 17:55:21 10° NNE
Meteor 1-14 Rocket 4.1 17:44:36 10° S 17:50:11 85° E 17:55:45 10° NNE
Cosmos 962 Rocket 4.4 17:44:58 10° S 17:51:07 71° E 17:57:23 10° NNE
Okean 1-7 3.0 17:47:24 10° N 17:51:44 56° ENE 17:54:31 21° SSE
COSMOS 2428 4.4 17:49:27 10° SSE 17:50:33 14° SE 17:50:33 14° SE
Meteor 1-11 Rocket 4.2 17:48:52 10° SSE 17:54:00 36° E 17:59:05 10° NNE
SJ-6B 3.1 17:52:51 34° ESE 17:54:13 48° ENE 17:58:09 10° N
USA 186 3.6 17:59:43 15° N 17:59:43 15° N 18:00:19 10° N
Cosmos 1869 Rocket 4.0 18:02:43 39° ENE 18:02:43 39° ENE 18:06:14 10° NNE
Cosmos 1339 Rocket 4.4 17:56:15 10° N 18:02:24 64° ENE 18:08:37 10° SSE
Cosmos 2366 rocket 4.1 17:57:45 10° SSE 18:03:46 50° E 18:09:52 10° NNE
Cosmos 2219 Rocket 2.9 18:00:22 10° SSE 18:04:10 31° SE 18:04:10 31° SE
IRS-1A Rocket 4.3 18:03:58 25° SE 18:07:12 60° ENE 18:12:41 10° N
Meteor 1-13 Rocket 4.3 18:01:22 10° N 18:07:16 58° ENE 18:10:29 27° SE
CZ-4 R/B 4.2 18:04:35 10° SW 18:07:21 19° W 18:10:10 10° NW
Cosmos 2341 Rocket 3.9 18:02:46 10° S 18:09:06 84° E 18:15:25 10° N
SL-16 R/B 3.4 18:05:12 10° SW 18:10:34 43° NW 18:16:00 10° NNE
USA 305 4.4 18:08:20 10° WNW 18:12:01 27° N 18:13:17 23° NNE
MetOp-A 4.1 18:07:08 10° SSE 18:12:29 89° WSW 18:17:53 10° NNW
Cosmos 1066 Rocket 4.4 18:09:19 10° N 18:14:51 48° ENE 18:15:57 43° ESE
ERBS 4.4 18:13:27 10° WNW 18:16:00 20° NNW 18:17:00 18° N
Gbstr 26 Del rocket 4.2 18:16:47 10° WNW 18:21:17 44° N 18:22:59 33° NE
Cosmos 2322 3.7 18:16:15 10° S 18:21:51 59° ESE 18:27:29 10° NNE
USA 307 4.4 18:19:12 10° WNW 18:22:53 27° N 18:23:39 25° NNE
ATLAS CENTAUR R/B 1.4 18:19:31 10° SW 18:23:06 62° NW 18:23:28 58° NNW
Cosmos 1727 Rocket 4.1 18:18:51 10° N 18:24:54 52° ENE 18:25:53 48° ESE
SL-4 R/B 2.7 18:22:22 10° WNW 18:25:01 38° NNW 18:25:01 38° NNW
CZ-2C R/B 3.6 18:21:01 10° N 18:26:17 48° WNW 18:31:25 10° SW
USA 306 4.3 18:23:04 10° WNW 18:26:45 27° N 18:27:19 26° NNE
Cosmos 2218 Rocket 3.9 18:22:53 10° S 18:29:17 79° E 18:35:41 10° N
USA 308 4.4 18:29:49 10° WNW 18:33:30 27° N 18:33:47 27° N
ASTEX 1 3.2 18:30:17 10° N 18:35:12 86° E 18:36:25 52° S
Okean 3 3.8 18:31:05 10° N 18:34:28 55° N 18:34:28 55° N
Meteor 2-20 4.4 18:29:51 10° N 18:35:52 56° ENE 18:36:05 55° E
Cosmos 192 4.3 18:32:16 10° SSW 18:43:56 - NNE 18:36:28 65° S
USA 234 3.2 18:36:59 28° NE 18:40:43 82° NW 18:47:15 10° WSW
SeaSat 1 4.1 18:39:29 10° NNE 18:43:53 33° NW 18:48:15 10° WSW
OBJECT-B 3.1 18:47:22 22° NW 18:47:22 22° NW 18:48:48 10° NNW
Resurs 01 Rocket 3.0 18:49:22 29° N 18:49:22 29° N 18:51:38 10° N
Cosmos 864 Rocket 4.5 18:42:32 10° S 18:48:41 81° W 18:54:56 10° N
Cosmos 1844 Rocket 3.7 18:43:33 10° NW 18:48:47 43° WSW 18:51:49 23° SSW
BREEZE-M DEB (TANK) 4.0 18:33:43 10° W 18:50:00 86° S 18:50:58 66° ESE
Cosmos 1666 4.2 18:47:58 10° SW 18:51:23 34° WNW 18:54:50 10° N
Cosmos 2333 4.3 18:46:48 10° SSW 18:52:26 75° WNW 18:58:11 10° NNE
Cosmos 2360 Rocket 3.5 18:56:11 10° WSW 19:01:26 38° NW 19:06:44 10° NNE
Cosmos 2278 Rocket 3.0 18:58:21 10° NNW 19:02:28 41° NNE 19:02:28 41° NNE
SPOT 3 Rocket 4.0 19:08:57 55° NNW 19:08:57 55° NNW 19:13:01 10° NNW
Cosmos 2333 Rocket 2.3 19:02:09 10° SSW 19:07:49 72° WNW 19:08:25 66° NNW
Ariane Rocket 4.4 19:19:27 30° SW 19:20:41 34° W 19:25:19 10° NNW
SJ 16-02 3.6 19:22:58 10° NNW 19:24:29 21° NNW 19:24:29 21° NNW
Cosmos 1943 Rocket 4.3 19:23:49 10° N 19:25:32 15° NNE 19:25:32 15° NNE
Cosmos 2219 Rocket 4.0 19:43:56 10° SW 19:56:15 - NNE 19:46:09 23° WSW
USA 234 4.4 20:24:19 38° NW 20:24:19 38° NW 20:29:17 10° W
